Погода в Понизовке

Россия / Республика Крым     44°23′34″N   33°57′06″E
темп.,
°C
ветер,
м/с
пор.,
м/с
влажн.,
%
обл.,
%
осадки,
мм/ч
давл.,
гПа
погр.,
м
17 апреля, сб
сб1700:00+2ссз2275100 0.0 102152
03:00+1ссз3382100 0.0 102255
06:00+2с117399 0.0 102223
09:00+6юв1157100 0.0 1022559
12:00+9юв335882 0.0 10221053
15:00+8в446579 0.0 1021908
18:00+8в336453 0.0 1020624
21:00+4всв4583100 0.0 1020159
18 апреля, вс
вс1800:00+5в3663100 0.0 1018176
03:00+5всв358377 0.1 1018105
06:00+6св228597 0.0 101742
09:00+7в3486100 0.4 1017170
12:00+8всв2378100 0.4 1017161
15:00+12св237211 0.4 1015486
18:00+11в2278100 0.0 1015364
21:00+8вюв1192100 0.0 101737
19 апреля, пн
пн1900:00+8юв1195100 0.0 101713
03:00+7с1196100 0.0 101611
06:00+7вюв1197100 0.0 101614
09:00+10юв2289100 0.2 1015264
12:00+10в3390100 1.3 1014188
15:00+9в3495100 5.1 1013156
18:00+9юв3495100 0.4 1013158
21:00+10в3596100 1.1 1010132
20 апреля, вт
вт2000:00+10ююв2498100 2.8 1008150
03:00+10юв2299100 11.4 100592
06:00+8ююв3897100 8.0 1004506
09:00+8юз5129899 10.6 1003631
12:00+7зюз8149498 0.2 1004949
15:00+6юз91698100 0.7 10041166
18:00+5з9179699 1.4 10051326
21:00+5з8179698 1.8 10101325
21 апреля, ср
ср2100:00+6з4119350 0.3 10131046
03:00+4зсз23955 0.4 101564
06:00+4сз229370 0.1 101732
09:00+8зсз246353 0.1 1018700
12:00+10зюз456686 0.0 10181150
15:00+11зюз457125 0.8 10191027
18:00+9з34721 0.1 1020640
21:00+6з11855 0.1 102114